Hourly Weather Abaete

Today, 25 November, Wednesday

Time Temperature Precipitation Wind Pressure Humidity
00:00 +23°C° 0.5 mm 2 mps 709 mmHg 84%
01:00 +21°C° 0 mm 2 mps 709 mmHg 86%
02:00 +21°C° 0 mm 2 mps 709 mmHg 88%
03:00 +21°C° 0 mm 1 mps 708 mmHg 90%
04:00 +21°C° 0 mm 1 mps 709 mmHg 90%
05:00 +21°C° 0 mm 1 mps 709 mmHg 90%
06:00 +21°C° 0 mm 1 mps 709 mmHg 90%
07:00 +21°C° 0 mm 2 mps 710 mmHg 84%
08:00 +24°C° 0 mm 2 mps 710 mmHg 78%
09:00 +25°C° 0 mm 3 mps 710 mmHg 73%
10:00 +26°C° 0.2 mm 3 mps 710 mmHg 70%
11:00 +27°C° 0.2 mm 3 mps 710 mmHg 67%
12:00 +28°C° 0.2 mm 3 mps 710 mmHg 65%
13:00 +28°C° 0.3 mm 2 mps 709 mmHg 63%
14:00 +29°C° 0.3 mm 2 mps 709 mmHg 61%
15:00 +29°C° 0.3 mm 2 mps 708 mmHg 59%
16:00 +28°C° 0 mm 2 mps 708 mmHg 64%
17:00 +27°C° 0 mm 1 mps 708 mmHg 68%
18:00 +26°C° 0 mm 1 mps 708 mmHg 73%
19:00 +25°C° 0.6 mm 2 mps 708 mmHg 76%
20:00 +24°C° 0.6 mm 2 mps 708 mmHg 80%
21:00 +23°C° 0.6 mm 2 mps 708 mmHg 83%
22:00 +23°C° 0.2 mm 2 mps 708 mmHg 84%
23:00 +23°C° 0.2 mm 2 mps 708 mmHg 86%

Tomorrow, 26 November, Thursday

Time Temperature Precipitation Wind Pressure Humidity
00:00 +21°C° 0.2 mm 2 mps 708 mmHg 88%
01:00 +21°C° 0 mm 2 mps 708 mmHg 89%
02:00 +20°C° 0 mm 2 mps 707 mmHg 90%
03:00 +20°C° 0 mm 2 mps 707 mmHg 91%
04:00 +20°C° 0 mm 2 mps 707 mmHg 91%
05:00 +21°C° 0 mm 1 mps 708 mmHg 91%
06:00 +21°C° 0 mm 1 mps 708 mmHg 91%
07:00 +21°C° 0 mm 2 mps 709 mmHg 83%
08:00 +24°C° 0 mm 2 mps 709 mmHg 76%
09:00 +26°C° 0 mm 3 mps 710 mmHg 68%
10:00 +27°C° 0 mm 3 mps 710 mmHg 63%
11:00 +28°C° 0 mm 3 mps 709 mmHg 58%
12:00 +29°C° 0 mm 3 mps 709 mmHg 53%
13:00 +30°C° 0 mm 3 mps 709 mmHg 53%
14:00 +30°C° 0 mm 3 mps 708 mmHg 52%
15:00 +30°C° 0 mm 3 mps 707 mmHg 52%
16:00 +29°C° 0.1 mm 2 mps 707 mmHg 57%
17:00 +28°C° 0.1 mm 1 mps 707 mmHg 62%
18:00 +27°C° 0.1 mm 1 mps 707 mmHg 67%
19:00 +26°C° 0 mm 1 mps 707 mmHg 68%
20:00 +25°C° 0 mm 1 mps 708 mmHg 69%
21:00 +24°C° 0 mm 1 mps 708 mmHg 70%
22:00 +23°C° 0 mm 1 mps 708 mmHg 73%
23:00 +23°C° 0 mm 1 mps 708 mmHg 76%

Day after tomorrow, 27 November, Friday

Time Temperature Precipitation Wind Pressure Humidity
00:00 +22°C° 0 mm 1 mps 708 mmHg 80%
01:00 +21°C° 0 mm 1 mps 707 mmHg 82%
02:00 +21°C° 0 mm 1 mps 707 mmHg 85%
03:00 +21°C° 0 mm 1 mps 707 mmHg 87%
04:00 +21°C° 0 mm 1 mps 707 mmHg 87%
05:00 +21°C° 0 mm 1 mps 707 mmHg 88%
06:00 +21°C° 0 mm 1 mps 708 mmHg 88%
07:00 +23°C° 0 mm 1 mps 708 mmHg 81%
08:00 +24°C° 0 mm 2 mps 709 mmHg 74%
09:00 +26°C° 0 mm 2 mps 709 mmHg 66%
10:00 +27°C° 0 mm 2 mps 709 mmHg 62%
11:00 +29°C° 0 mm 2 mps 709 mmHg 57%
12:00 +30°C° 0 mm 2 mps 709 mmHg 53%
13:00 +30°C° 0 mm 2 mps 708 mmHg 53%
14:00 +30°C° 0 mm 1 mps 708 mmHg 52%
15:00 +30°C° 0 mm 1 mps 707 mmHg 52%
16:00 +29°C° 0 mm 1 mps 707 mmHg 56%
17:00 +28°C° 0 mm 1 mps 707 mmHg 60%
18:00 +27°C° 0 mm 1 mps 707 mmHg 65%
19:00 +26°C° 0 mm 1 mps 707 mmHg 67%
20:00 +25°C° 0 mm 1 mps 708 mmHg 69%
21:00 +24°C° 0 mm 1 mps 708 mmHg 71%
22:00 +24°C° 0 mm 1 mps 708 mmHg 73%
23:00 +23°C° 0 mm 1 mps 708 mmHg 76%

28 November, Saturday

Time Temperature Precipitation Wind Pressure Humidity
00:00 +23°C° 0 mm 1 mps 708 mmHg 78%
01:00 +22°C° 0 mm 1 mps 708 mmHg 80%
02:00 +22°C° 0 mm 1 mps 707 mmHg 82%
03:00 +21°C° 0 mm 1 mps 707 mmHg 83%
04:00 +21°C° 0 mm 1 mps 708 mmHg 84%
05:00 +21°C° 0 mm 1 mps 708 mmHg 86%
06:00 +21°C° 0 mm 1 mps 708 mmHg 87%
07:00 +23°C° 0 mm 1 mps 709 mmHg 79%
08:00 +25°C° 0 mm 2 mps 709 mmHg 72%
09:00 +27°C° 0 mm 2 mps 710 mmHg 65%
10:00 +28°C° 0.1 mm 3 mps 710 mmHg 61%
11:00 +29°C° 0.1 mm 3 mps 709 mmHg 57%
12:00 +30°C° 0.1 mm 3 mps 709 mmHg 53%
13:00 +30°C° 0.1 mm 3 mps 709 mmHg 51%
14:00 +31°C° 0.1 mm 3 mps 709 mmHg 49%
15:00 +31°C° 0.1 mm 3 mps 708 mmHg 47%
16:00 +30°C° 0 mm 3 mps 708 mmHg 52%
17:00 +29°C° 0 mm 2 mps 708 mmHg 57%
18:00 +27°C° 0 mm 2 mps 708 mmHg 62%
19:00 +26°C° 0 mm 2 mps 708 mmHg 64%
20:00 +25°C° 0 mm 2 mps 708 mmHg 67%
21:00 +24°C° 0 mm 2 mps 708 mmHg 69%
22:00 +24°C° 0 mm 2 mps 708 mmHg 73%
23:00 +23°C° 0 mm 2 mps 708 mmHg 77%

29 November, Sunday

Time Temperature Precipitation Wind Pressure Humidity
00:00 +23°C° 0 mm 2 mps 708 mmHg 80%
01:00 +21°C° 0 mm 2 mps 708 mmHg 83%
02:00 +21°C° 0 mm 2 mps 708 mmHg 85%
03:00 +21°C° 0 mm 1 mps 708 mmHg 87%
04:00 +21°C° 0 mm 1 mps 708 mmHg 87%
05:00 +21°C° 0 mm 1 mps 709 mmHg 87%
06:00 +21°C° 0 mm 1 mps 709 mmHg 87%
07:00 +23°C° 0 mm 2 mps 709 mmHg 80%
08:00 +25°C° 0 mm 2 mps 710 mmHg 72%
09:00 +27°C° 0 mm 3 mps 710 mmHg 64%
10:00 +28°C° 0 mm 3 mps 710 mmHg 59%
11:00 +29°C° 0 mm 3 mps 710 mmHg 54%
12:00 +30°C° 0 mm 3 mps 710 mmHg 49%
13:00 +30°C° 0 mm 2 mps 709 mmHg 49%
14:00 +30°C° 0 mm 2 mps 709 mmHg 48%
15:00 +30°C° 0 mm 2 mps 708 mmHg 47%
16:00 +29°C° 0 mm 1 mps 708 mmHg 52%
17:00 +28°C° 0 mm 1 mps 708 mmHg 57%
18:00 +27°C° 0 mm 1 mps 707 mmHg 62%
19:00 +26°C° 0 mm 1 mps 708 mmHg 64%
20:00 +25°C° 0 mm 1 mps 708 mmHg 66%
21:00 +24°C° 0 mm 1 mps 708 mmHg 67%
22:00 +24°C° 0 mm 1 mps 708 mmHg 71%
23:00 +23°C° 0 mm 1 mps 708 mmHg 75%

30 November, Monday

Time Temperature Precipitation Wind Pressure Humidity
00:00 +23°C° 0 mm 1 mps 708 mmHg 79%
01:00 +22°C° 0 mm 1 mps 707 mmHg 81%
02:00 +22°C° 0 mm 1 mps 707 mmHg 83%
03:00 +21°C° 0 mm 1 mps 707 mmHg 85%
04:00 +21°C° 0 mm 1 mps 707 mmHg 85%
05:00 +21°C° 0 mm 1 mps 707 mmHg 86%
06:00 +21°C° 0 mm 1 mps 708 mmHg 86%
07:00 +23°C° 0 mm 1 mps 708 mmHg 78%
08:00 +25°C° 0 mm 2 mps 709 mmHg 71%
09:00 +27°C° 0 mm 2 mps 709 mmHg 63%
10:00 +28°C° 0 mm 2 mps 709 mmHg 58%
11:00 +30°C° 0 mm 1 mps 708 mmHg 53%
12:00 +31°C° 0 mm 1 mps 708 mmHg 48%
13:00 +32°C° 0 mm 1 mps 708 mmHg 46%
14:00 +32°C° 0 mm 2 mps 707 mmHg 45%
15:00 +32°C° 0 mm 2 mps 706 mmHg 43%
16:00 +30°C° 0 mm 2 mps 706 mmHg 48%
17:00 +29°C° 0 mm 2 mps 706 mmHg 53%
18:00 +28°C° 0 mm 1 mps 705 mmHg 59%
19:00 +27°C° 0 mm 1 mps 706 mmHg 60%
20:00 +26°C° 0 mm 1 mps 706 mmHg 60%
21:00 +25°C° 0 mm 1 mps 706 mmHg 61%
22:00 +24°C° 0 mm 1 mps 706 mmHg 64%
23:00 +24°C° 0 mm 1 mps 706 mmHg 67%
Show more